When you browse on this site, cookies collect data to enhance your experience and personalize the content and advertising you see.
Visit our Privacy Policy to learn more. By continuing to use the site, you agree to this use of cookies and data.
  • In Portugal
  • List of Countries
  • For 7 days
  • Water Temperature
  • Satellite Maps
  • Weather Map
  • Weather Widgets
  • user-avatar
    Login

    Hourly Weather Golden Sands

    Today, 19 January, Saturday

    Time Temperature Precipitation Wind Pressure Humidity
    00:00 +5°C° 0 mm 5 mps 761 mmHg 78%
    01:00 +5°C° 0 mm 4 mps 761 mmHg 75%
    02:00 +5°C° 0 mm 4 mps 761 mmHg 67%
    03:00 +5°C° 0 mm 4 mps 761 mmHg 67%
    04:00 +5°C° 0 mm 4 mps 761 mmHg 68%
    05:00 +5°C° 0 mm 4 mps 762 mmHg 68%
    06:00 +3°C° 0 mm 5 mps 762 mmHg 72%
    07:00 +2°C° 0 mm 5 mps 763 mmHg 76%
    08:00 +1°C° 0 mm 6 mps 763 mmHg 80%
    09:00 +2°C° 0 mm 6 mps 763 mmHg 80%
    10:00 +2°C° 0 mm 6 mps 764 mmHg 80%
    11:00 +3°C° 0 mm 7 mps 764 mmHg 80%
    12:00 +3°C° 0 mm 6 mps 764 mmHg 79%
    13:00 +4°C° 0 mm 6 mps 765 mmHg 79%
    14:00 +4°C° 0 mm 6 mps 765 mmHg 79%
    15:00 +4°C° 0 mm 6 mps 765 mmHg 80%
    16:00 +3°C° 0 mm 7 mps 765 mmHg 82%
    17:00 +3°C° 0 mm 7 mps 765 mmHg 83%
    18:00 +3°C° 0.1 mm 6 mps 765 mmHg 84%
    19:00 +3°C° 0.1 mm 6 mps 765 mmHg 85%
    20:00 +3°C° 0.1 mm 6 mps 765 mmHg 86%
    21:00 +3°C° 0.1 mm 6 mps 765 mmHg 87%
    22:00 +3°C° 0.1 mm 6 mps 765 mmHg 88%
    23:00 +3°C° 0.1 mm 6 mps 765 mmHg 88%

    Tomorrow, 20 January, Sunday

    Time Temperature Precipitation Wind Pressure Humidity
    00:00 +3°C° 0.1 mm 5 mps 765 mmHg 89%
    01:00 +3°C° 0.1 mm 5 mps 765 mmHg 90%
    02:00 +3°C° 0.1 mm 5 mps 765 mmHg 90%
    03:00 +3°C° 0.1 mm 5 mps 764 mmHg 91%
    04:00 +5°C° 0.1 mm 5 mps 764 mmHg 91%
    05:00 +5°C° 0.1 mm 5 mps 763 mmHg 91%
    06:00 +5°C° 0.1 mm 5 mps 763 mmHg 92%
    07:00 +5°C° 0.1 mm 5 mps 763 mmHg 93%
    08:00 +5°C° 0.1 mm 5 mps 763 mmHg 94%
    09:00 +5°C° 0 mm 5 mps 763 mmHg 94%
    10:00 +6°C° 0 mm 5 mps 763 mmHg 95%
    11:00 +6°C° 0 mm 5 mps 763 mmHg 95%
    12:00 +6°C° 0 mm 5 mps 762 mmHg 95%
    13:00 +7°C° 0 mm 4 mps 761 mmHg 95%
    14:00 +7°C° 0 mm 4 mps 761 mmHg 95%
    15:00 +7°C° 0 mm 4 mps 761 mmHg 95%
    16:00 +7°C° 0 mm 4 mps 760 mmHg 95%
    17:00 +7°C° 0 mm 4 mps 760 mmHg 96%
    18:00 +7°C° 0 mm 5 mps 760 mmHg 95%
    19:00 +7°C° 0 mm 5 mps 760 mmHg 94%
    20:00 +7°C° 0 mm 5 mps 760 mmHg 93%
    21:00 +7°C° 0.2 mm 5 mps 760 mmHg 93%
    22:00 +8°C° 0.2 mm 5 mps 760 mmHg 94%
    23:00 +8°C° 0.2 mm 5 mps 760 mmHg 94%

    Day after tomorrow, 21 January, Monday

    Time Temperature Precipitation Wind Pressure Humidity
    00:00 +7°C° 0.6 mm 5 mps 760 mmHg 94%
    01:00 +7°C° 0.6 mm 4 mps 760 mmHg 95%
    02:00 +7°C° 0.6 mm 4 mps 760 mmHg 95%
    03:00 +6°C° 0 mm 5 mps 760 mmHg 92%
    04:00 +5°C° 0 mm 5 mps 760 mmHg 90%
    05:00 +3°C° 0 mm 6 mps 760 mmHg 88%
    06:00 +3°C° 0 mm 6 mps 760 mmHg 87%
    07:00 +3°C° 0 mm 5 mps 761 mmHg 87%
    08:00 +2°C° 0 mm 5 mps 761 mmHg 87%
    09:00 +3°C° 0 mm 5 mps 762 mmHg 84%
    10:00 +3°C° 0 mm 5 mps 762 mmHg 81%
    11:00 +5°C° 0 mm 5 mps 762 mmHg 78%
    12:00 +5°C° 0 mm 5 mps 762 mmHg 76%
    13:00 +5°C° 0 mm 5 mps 762 mmHg 74%
    14:00 +6°C° 0 mm 5 mps 762 mmHg 73%
    15:00 +5°C° 0 mm 5 mps 763 mmHg 73%
    16:00 +3°C° 0 mm 5 mps 763 mmHg 74%
    17:00 +4°C° 0 mm 4 mps 763 mmHg 75%
    18:00 +2°C° 0 mm 5 mps 764 mmHg 77%
    19:00 +2°C° 0 mm 5 mps 764 mmHg 79%
    20:00 +1°C° 0 mm 5 mps 764 mmHg 81%
    21:00 +1°C° 0 mm 5 mps 764 mmHg 82%
    22:00 +1°C° 0 mm 5 mps 764 mmHg 83%
    23:00 +1°C° 0 mm 5 mps 764 mmHg 85%

    22 January, Tuesday

    Time Temperature Precipitation Wind Pressure Humidity
    00:00 0°C° 0 mm 5 mps 764 mmHg 85%
    01:00 0°C° 0 mm 4 mps 764 mmHg 86%
    02:00 0°C° 0 mm 4 mps 764 mmHg 87%
    03:00 0°C° 0 mm 4 mps 764 mmHg 87%
    04:00 +1°C° 0 mm 4 mps 763 mmHg 86%
    05:00 +1°C° 0 mm 4 mps 763 mmHg 86%
    06:00 +1°C° 0 mm 4 mps 763 mmHg 85%
    07:00 +1°C° 0 mm 4 mps 763 mmHg 85%
    08:00 +1°C° 0 mm 4 mps 763 mmHg 85%
    09:00 +2°C° 0 mm 5 mps 762 mmHg 84%
    10:00 +2°C° 0 mm 5 mps 762 mmHg 83%
    11:00 +3°C° 0 mm 5 mps 762 mmHg 82%
    12:00 +3°C° 0 mm 5 mps 761 mmHg 83%
    13:00 +4°C° 0 mm 6 mps 761 mmHg 83%
    14:00 +4°C° 0 mm 6 mps 760 mmHg 84%
    15:00 +4°C° 0.1 mm 6 mps 759 mmHg 86%
    16:00 +4°C° 0.1 mm 6 mps 759 mmHg 89%
    17:00 +4°C° 0.1 mm 6 mps 758 mmHg 92%
    18:00 +4°C° 0.1 mm 7 mps 758 mmHg 92%
    19:00 +5°C° 0.1 mm 7 mps 758 mmHg 93%
    20:00 +5°C° 0.1 mm 7 mps 757 mmHg 94%
    21:00 +5°C° 0 mm 7 mps 757 mmHg 94%
    22:00 +5°C° 0 mm 6 mps 756 mmHg 94%
    23:00 +7°C° 0 mm 6 mps 756 mmHg 94%

    23 January, Wednesday

    Time Temperature Precipitation Wind Pressure Humidity
    00:00 +7°C° 0 mm 6 mps 755 mmHg 94%
    01:00 +7°C° 0 mm 6 mps 755 mmHg 94%
    02:00 +7°C° 0 mm 5 mps 754 mmHg 95%
    03:00 +7°C° 0 mm 6 mps 753 mmHg 94%
    04:00 +7°C° 0 mm 6 mps 753 mmHg 93%
    05:00 +7°C° 0 mm 6 mps 752 mmHg 93%
    06:00 +6°C° 1.2 mm 7 mps 752 mmHg 92%
    07:00 +7°C° 1.2 mm 8 mps 752 mmHg 92%
    08:00 +7°C° 1.2 mm 10 mps 751 mmHg 92%
    09:00 +7°C° 0.1 mm 10 mps 751 mmHg 89%
    10:00 +8°C° 0.1 mm 10 mps 751 mmHg 86%
    11:00 +8°C° 0.1 mm 10 mps 751 mmHg 83%
    12:00 +8°C° 0.6 mm 10 mps 751 mmHg 84%
    13:00 +8°C° 0.6 mm 9 mps 750 mmHg 86%
    14:00 +8°C° 0.6 mm 9 mps 750 mmHg 87%
    15:00 +8°C° 0.3 mm 9 mps 750 mmHg 86%
    16:00 +8°C° 0.3 mm 9 mps 750 mmHg 85%
    17:00 +8°C° 0.3 mm 9 mps 749 mmHg 85%
    18:00 +8°C° 0 mm 9 mps 750 mmHg 84%
    19:00 +8°C° 0 mm 9 mps 750 mmHg 84%
    20:00 +8°C° 0 mm 9 mps 750 mmHg 83%
    21:00 +8°C° 0 mm 9 mps 751 mmHg 85%
    22:00 +8°C° 0 mm 9 mps 751 mmHg 86%
    23:00 +9°C° 0 mm 8 mps 752 mmHg 87%

    24 January, Thursday

    Time Temperature Precipitation Wind Pressure Humidity
    00:00 +7°C° 0 mm 8 mps 751 mmHg 89%
    01:00 +8°C° 0 mm 7 mps 751 mmHg 90%
    02:00 +8°C° 0 mm 7 mps 751 mmHg 91%
    03:00 +8°C° 0.3 mm 6 mps 751 mmHg 93%
    04:00 +8°C° 0.3 mm 6 mps 751 mmHg 94%
    05:00 +8°C° 0.3 mm 6 mps 751 mmHg 95%
    06:00 +7°C° 0.4 mm 5 mps 751 mmHg 95%
    07:00 +7°C° 0.4 mm 5 mps 751 mmHg 96%
    08:00 +7°C° 0.4 mm 4 mps 751 mmHg 96%
    09:00 +8°C° 0 mm 3 mps 751 mmHg 95%
    10:00 +8°C° 0 mm 2 mps 751 mmHg 94%
    11:00 +8°C° 0 mm 2 mps 751 mmHg 93%
    12:00 +8°C° 0 mm 2 mps 751 mmHg 93%
    13:00 +7°C° 0 mm 3 mps 751 mmHg 92%
    14:00 +6°C° 0 mm 4 mps 750 mmHg 91%
    15:00 +6°C° 0.1 mm 4 mps 750 mmHg 92%
    16:00 +6°C° 0.1 mm 5 mps 750 mmHg 93%
    17:00 +4°C° 0.1 mm 6 mps 750 mmHg 94%
    18:00 +6°C° 0.7 mm 5 mps 750 mmHg 95%
    19:00 +6°C° 0.7 mm 5 mps 749 mmHg 96%
    20:00 +6°C° 0.7 mm 5 mps 749 mmHg 96%
    21:00 +6°C° 1.8 mm 4 mps 749 mmHg 97%
    22:00 +6°C° 1.8 mm 4 mps 749 mmHg 97%
    23:00 +7°C° 1.8 mm 4 mps 749 mmHg 98%
    Show more